Simultaneous Nadir Overpasses (SNOs) Predictions

Prediction of SNOs between NOAA-19 and NPP Satellite Orbit:

Table of predicted SNOs for the next 14.0 days since TLE Epoch: 2/12/2012
Index Date (NOAA-19) Time (NOAA-19) NOAA-19 Lat,Lon Date (NPP) Time (NPP) NPP Lat,Lon Distance(km) Time Diff (sec)
1 02/20/2012 14:49:12 80.41, -85.77 02/20/2012 14:50:23 80.41, -85.93 2.94 71
2 02/20/2012 15:40:18 -80.36, 82.11 02/20/2012 15:41:06 -80.36, 82.06 1.03 48
3 02/20/2012 16:31:17 80.40,-111.15 02/20/2012 16:31:52 80.39,-111.01 2.62 35
4 02/20/2012 17:22:18 -80.22, 58.32 02/20/2012 17:22:31 -80.23, 58.23 1.96 13
5 02/20/2012 18:13:16 80.24,-134.60 02/20/2012 18:13:16 80.23,-134.51 1.68 0
6 02/20/2012 19:04:16 -80.03, 35.10 02/20/2012 19:03:54 -80.04, 34.96 2.86 22
7 02/20/2012 19:55:14
